SCOUT A DEB, 3213

Orbit data source: Space-Track

SCOUT A DEB, 3213 is space debris in LEO originally from a launch on Sat, 02 Mar 1968 UTC launched from the Air Force Western Test Range (AFWTR). Debris objects in space refer to the collection of defunct objects orbiting the Earth. Examples of debris include non-operational satellites, rocket bodies, and fragments generated from explosions, collisions, or faulty payload assembly.

Loading next visibility...
Identifier
3213, 1968-012C
Orbit
LEO
Country
Flag of USUS
Related business
Manufacturer
Unknown
Mission
Spacecraft
Bus & Motor
Unknown
Mass
Unknown
Launch date (UTC)
1968-03-02 (58 years ago)
Launch vehicle
Unknown
Launch site
Air Force Western Test Range (AFWTR)
Object type
Payload
Rocket body
Debris
Shape & HBR
Unknown shape, 0.1 m
Radar Cross Section
Medium (>0.1 m² and <1 m²)

Expand to show TLE details & history
Last TLE update: 22 hours ago

TLE from 22 hours ago
0 SCOUT A DEB
1 03213U 68012C   26208.71115181  .00000419  00000-0  33319-3 0  9995
2 03213  90.2046 114.3863 0049629 219.8960 169.2680 13.89340925616079
Epoch: 2026-07-27T17:04Z
TLE epoch observation values (Epoch: 2026-07-27T17:04:03.516Z)
Latitude
29.31426°
Longitude
-87.13345°
Altitude
970.341 km
Speed
7.351 km/s
True Right ascension
07h 37m 05s
True Declination
29° 10' 19"
Sunlit
Object was in daylight at epoch
Visualization orbit readout
Latitude
Unknown
Longitude
Unknown
Altitude
Unknown
Speed
Unknown
Apparent Right ascension
Unknown
Apparent Declination
Unknown
Sunlit
N/A
Visualization observer readout
Local Sidereal Time
04:45:51
Azimuth
Unknown
Elevation
Unknown
Doppler factor
Unknown
Orbital elements
Apogee altitude
964.193 km
Perigee altitude
891.675 km
Semi-major axis
7,306.071 km
Eccentricity
0.00496
Inclination
90.2046°
RAAN
114.3863°
Arg. of periapsis
219.896°
True anomaly
169.37326°
Mean anomaly
169.268°
Eccentric anomaly
169.32069°
Mean motion
3.4755 °/min
Orbital period
103.58 mins
BSTAR
0.00033319
Loading maneuver chart data...
Computing Atmospheric mass density...
Loading historical data...
Loading historical data...
Loading historical data...
Loading historical data...
Loading historical data...
Loading historical data...
Loading historical data...

Documentation

Showing up to 5 results
|